TimeEDT,TemperatureF,Dew PointF,Humidity,Sea Level PressureIn,VisibilityMPH,Wind Direction,Wind SpeedMPH,Gust SpeedMPH,PrecipitationIn,Events,Conditions,WindDirDegrees,DateUTC
12:16 AM,60.8,60.8,100,30.09,1.2,Calm,Calm,-,N/A,,Partly Cloudy,0,2013-08-20 04:16:00
12:18 AM,60.8,60.8,100,30.09,0.8,Calm,Calm,-,N/A,,Mist,0,2013-08-20 04:18:00
12:30 AM,60.8,60.8,100,30.09,1.0,Calm,Calm,-,N/A,,Clear,0,2013-08-20 04:30:00
12:33 AM,60.8,60.8,100,30.09,2.5,Calm,Calm,-,N/A,,Clear,0,2013-08-20 04:33:00
12:40 AM,60.8,60.8,100,30.09,3.0,Calm,Calm,-,N/A,,Clear,0,2013-08-20 04:40:00
12:42 AM,60.8,60.8,100,30.09,2.0,Calm,Calm,-,N/A,,Partly Cloudy,0,2013-08-20 04:42:00
12:49 AM,60.8,60.8,100,30.09,1.8,Calm,Calm,-,N/A,,Clear,0,2013-08-20 04:49:00
12:53 AM,61.0,60.1,97,30.08,3.0,Calm,Calm,-,N/A,,Clear,0,2013-08-20 04:53:00
1:28 AM,59.0,59.0,100,30.08,1.8,Calm,Calm,-,N/A,,Partly Cloudy,0,2013-08-20 05:28:00
1:34 AM,59.0,57.2,94,30.08,3.0,Calm,Calm,-,N/A,,Scattered Clouds,0,2013-08-20 05:34:00
1:53 AM,60.1,59.0,96,30.08,5.0,Calm,Calm,-,N/A,,Scattered Clouds,0,2013-08-20 05:53:00
2:01 AM,59.0,59.0,100,30.08,1.5,Calm,Calm,-,N/A,,Scattered Clouds,0,2013-08-20 06:01:00
2:03 AM,59.0,59.0,100,30.08,0.8,Calm,Calm,-,N/A,,Mist,0,2013-08-20 06:03:00
2:16 AM,57.2,57.2,100,30.08,1.8,Calm,Calm,-,N/A,,Mostly Cloudy,0,2013-08-20 06:16:00
2:19 AM,57.2,57.2,100,30.08,3.0,Calm,Calm,-,N/A,,Mostly Cloudy,0,2013-08-20 06:19:00
2:38 AM,59.0,59.0,100,30.08,1.2,Calm,Calm,-,N/A,,Overcast,0,2013-08-20 06:38:00
2:46 AM,59.0,59.0,100,30.08,0.5,Calm,Calm,-,N/A,Fog,Fog,0,2013-08-20 06:46:00
2:53 AM,59.0,59.0,100,30.08,0.2,Calm,Calm,-,N/A,Fog,Fog,0,2013-08-20 06:53:00
3:53 AM,57.9,57.9,100,30.08,0.2,Calm,Calm,-,N/A,Fog,Fog,0,2013-08-20 07:53:00
4:53 AM,59.0,59.0,100,30.08,0.2,Calm,Calm,-,N/A,Fog,Fog,0,2013-08-20 08:53:00
5:53 AM,59.0,59.0,100,30.09,0.2,Calm,Calm,-,N/A,Fog,Fog,0,2013-08-20 09:53:00
6:53 AM,60.1,60.1,100,30.12,0.2,Calm,Calm,-,N/A,Fog,Fog,0,2013-08-20 10:53:00
7:53 AM,61.0,61.0,100,30.14,0.2,Calm,Calm,-,N/A,Fog,Fog,0,2013-08-20 11:53:00
8:41 AM,62.6,62.6,100,30.15,1.5,Calm,Calm,-,N/A,,Overcast,0,2013-08-20 12:41:00
8:46 AM,64.4,64.4,100,30.15,3.0,Calm,Calm,-,N/A,,Mostly Cloudy,0,2013-08-20 12:46:00
8:53 AM,64.0,64.0,100,30.14,5.0,Calm,Calm,-,N/A,,Mostly Cloudy,0,2013-08-20 12:53:00
9:10 AM,64.4,64.4,100,30.15,9.0,Calm,Calm,-,N/A,,Partly Cloudy,0,2013-08-20 13:10:00
9:53 AM,72.0,66.0,81,30.15,10.0,Calm,Calm,-,N/A,,Clear,0,2013-08-20 13:53:00
10:53 AM,75.9,66.9,74,30.15,10.0,Variable,3.5,-,N/A,,Clear,0,2013-08-20 14:53:00
11:53 AM,78.1,66.0,66,30.14,10.0,Calm,Calm,-,N/A,,Partly Cloudy,0,2013-08-20 15:53:00
12:53 PM,78.1,64.9,64,30.13,10.0,South,3.5,-,N/A,,Partly Cloudy,170,2013-08-20 16:53:00
1:53 PM,80.1,64.9,60,30.12,10.0,ENE,3.5,-,N/A,,Mostly Cloudy,60,2013-08-20 17:53:00
2:53 PM,82.9,64.9,54,30.10,10.0,Calm,Calm,-,N/A,,Partly Cloudy,0,2013-08-20 18:53:00
3:53 PM,84.0,64.9,53,30.09,10.0,Calm,Calm,-,N/A,,Overcast,0,2013-08-20 19:53:00
4:53 PM,82.0,66.0,58,30.09,10.0,Calm,Calm,-,N/A,,Mostly Cloudy,0,2013-08-20 20:53:00
5:53 PM,79.0,71.1,77,30.09,10.0,Calm,Calm,-,N/A,,Mostly Cloudy,0,2013-08-20 21:53:00
6:53 PM,78.1,71.1,79,30.10,10.0,Calm,Calm,-,N/A,,Scattered Clouds,0,2013-08-20 22:53:00
7:53 PM,71.1,66.9,87,30.11,10.0,Calm,Calm,-,N/A,,Clear,0,2013-08-20 23:53:00
8:53 PM,68.0,66.0,93,30.12,9.0,Calm,Calm,-,N/A,,Clear,0,2013-08-21 00:53:00
9:53 PM,66.0,64.9,96,30.14,7.0,Calm,Calm,-,N/A,,Partly Cloudy,0,2013-08-21 01:53:00
10:53 PM,64.9,64.0,97,30.14,7.0,Calm,Calm,-,N/A,,Clear,0,2013-08-21 02:53:00
11:53 PM,62.1,62.1,100,30.15,6.0,Calm,Calm,-,N/A,,Clear,0,2013-08-21 03:53:00